Location: *
(40.7873°S, 98.7174°E)
Time: 21:08:01
(UTC+00:00)

Cosmos 192 - Pass Details

Date: 30 September 2022
Orbit: 701 x 711 km, 74.0° (Epoch: 05 December)

Event Time Altitude Azimuth Distance (km) Brightness Sun altitude
Rises 21:12:39 0° 209° (SSW) 3,136 7.6 -20.5°
Reaches altitude 10° 21:15:09 10° 217° (SW) 2,211 6.7 -20.0°
Enters shadow 21:18:08 29° 246° (WSW) 1,319 5.3 -19.5°
